www.pogodaiklimat.ru

Архив погоды в Дублине (Ирландия)

Время
(UTC), дата
13 20.05
14 20.05
15 20.05
16 20.05
17 20.05
18 20.05
19 20.05
20 20.05
21 20.05
22 20.05
23 20.05
00 21.05
01 21.05
02 21.05
03 21.05
04 21.05
05 21.05
06 21.05
07 21.05
08 21.05
09 21.05
10 21.05
11 21.05
12 21.05
13 21.05
14 21.05
15 21.05
16 21.05
17 21.05
18 21.05
19 21.05
20 21.05
21 21.05
22 21.05
23 21.05
00 22.05
01 22.05
02 22.05
03 22.05
04 22.05
05 22.05
06 22.05
07 22.05
08 22.05
09 22.05
10 22.05
11 22.05
12 22.05
13 22.05
14 22.05
15 22.05
16 22.05
17 22.05
18 22.05
19 22.05
20 22.05
21 22.05
22 22.05
23 22.05
00 23.05
01 23.05
02 23.05
03 23.05
04 23.05
05 23.05
06 23.05
07 23.05
08 23.05
09 23.05
10 23.05
11 23.05
12 23.05
13 23.05
14 23.05
15 23.05
16 23.05
17 23.05
18 23.05
19 23.05
20 23.05
21 23.05
22 23.05
23 23.05
00 24.05
01 24.05
02 24.05
03 24.05
04 24.05
05 24.05
06 24.05
07 24.05
08 24.05
09 24.05
10 24.05
11 24.05
12 24.05
13 24.05
14 24.05
15 24.05
16 24.05
17 24.05
18 24.05
19 24.05
20 24.05
21 24.05
22 24.05
23 24.05
00 25.05
01 25.05
02 25.05
03 25.05
04 25.05
05 25.05
06 25.05
07 25.05
08 25.05
09 25.05
10 25.05
11 25.05
12 25.05
13 25.05
14 25.05
15 25.05
16 25.05
17 25.05
18 25.05
19 25.05
20 25.05
21 25.05
22 25.05
23 25.05
00 26.05
01 26.05
02 26.05
03 26.05
04 26.05
05 26.05
06 26.05
07 26.05
08 26.05
09 26.05
10 26.05
11 26.05
12 26.05
13 26.05
14 26.05
15 26.05
16 26.05
17 26.05
18 26.05
19 26.05
20 26.05
21 26.05
22 26.05
23 26.05
00 27.05
01 27.05
02 27.05
03 27.05
04 27.05
05 27.05
06 27.05
07 27.05
08 27.05
09 27.05
10 27.05
11 27.05
Ветер
(напр.,м/с)
Видим. Явления Облачность Т
(С)
Тd
(С)
f
(%)
Тe
(С)
Тes
(С)
Комфортность P
(гПа)
Po
(гПа)
Тmin
(С)
Tmax
(С)
R
(мм)
R24
(мм)
S
(см)
СВ 5 18 км 5/1 450 м
[Cb calv Ci sp]
+19.6 +13.3 67 +21 +28 комфорт 1014.8 1004.8
СВ 5 18 км 5/1 330 м
[Cb calv Ac trans Ci sp]
+18.6 +12.8 69 +19 +24 тепло 1014.6 1004.6
В 5 18 км 5/1 330 м
[Cb calv Ac trans Ci sp]
+18.4 +11.5 64 +18 +23 тепло 1014.1 1004.1
СВ 5 20 км 5/1 450 м
[Cb calv Ac trans Ci sp]
+18.4 +12.3 68 +18 +22 тепло 1013.5 1003.5
В 5 20 км 5/1 540 м
[Cb calv Ac trans Ci sp]
+16.1 +12.6 80 +15 +17 тепло 1013.6 1003.5
В 5 20 км 6/1 540 м
[Sc Ac trans Ci sp]
+15.6 +11.3 76 +14 +15 тепло 1013.6 1003.5 +20.0 0.0
В 5 20 км 8/1 540 м
[Sc Ac trans Ci fib]
+14.6 +10.7 77 +13 +13 тепло 1013.7 1003.5
В 4 20 км 8/1 540 м
[Sc Ac trans Ci fib]
+13.6 +10.9 84 +12 +12 тепло 1013.6 1003.4
В 4 15 км дымка 9/1 450 м
[St Ac trans]
+13.1 +11.2 88 +11 +11 по сезону 1013.6 1003.4
В 4 15 км дымка 9/1 450 м
[St Ac trans]
+12.8 +11.0 89 +11 +11 тепло 1013.4 1003.2
В 4 15 км дымка 9/1 450 м
[St Ac trans]
+12.7 +10.9 89 +11 +11 тепло 1013.2 1003.0
В 3 14 км дымка 6/1 450 м
[Sc Ac trans]
+11.5 +10.3 92 +10 +10 тепло 1013.2 1002.9 0.0
СВ 3 14 км дымка 1/1 450 м
[St]
+10.2 +8.7 90 +8 +8 тепло 1012.6 1002.3
СВ 3 13 км дымка 1/1 450 м
[St Ac trans]
+9.3 +8.7 96 +7 +7 тепло 1012.2 1001.8
С 2 8000 м дымка 9/1 450 м
[St Ac trans]
+8.7 +8.1 96 +7 +7 по сезону 1011.8 1001.4
В 2 5000 м дымка 9/1 60 м
[Sc Ac trans]
+11.5 +11.1 97 +10 +10 тепло 1011.4 1001.1
В 2 3000 м дымка 9/1 90 м
[Sc Ac trans]
+11.5 +11.0 97 +10 +10 тепло 1011.3 1001.0
В 3 4200 м дымка 9/5 60 м
[Cu Sc Ac trans]
+12.3 +11.9 97 +11 +11 тепло 1011.3 1001.1 +8.4 0.0
ЮВ 4 15 км дымка 9/5 450 м
[Sc Ac trans]
+13.5 +11.5 88 +12 +12 тепло 1011.4 1001.2
ЮВ 4 18 км 8/4 450 м
[Sc Ac trans]
+14.2 +11.0 81 +13 +14 тепло 1011.7 1001.5
В 4 20 км 8/4 450 м
[Sc Ac trans]
+16.3 +11.0 71 +16 +18 тепло 1011.6 1001.5
В 4 20 км 6/4 420 м
[Cb calv Ac trans]
+16.9 +11.4 70 +16 +20 тепло 1011.5 1001.4
В 5 20 км 8/4 420 м
[Cb calv Ac trans]
+16.4 +9.5 64 +16 +18 тепло 1011.6 1001.5
В 6 20 км 8/8 420 м
[Cb calv]
+16.1 +9.2 64 +15 +16 тепло 1011.7 1001.6 0.0
В 5 20 км 8/8 420 м
[Sc]
+16.8 +9.6 62 +16 +18 тепло 1011.2 1001.1
В 4 20 км 8/6 420 м
[Sc Ac trans]
+16.9 +9.4 61 +16 +19 тепло 1011.3 1001.2
В 4 20 км 8/8 480 м
[Cb calv]
+16.6 +9.6 63 +16 +18 тепло 1011.1 1001.0
В 4 25 км 8/8 480 м
[Sc]
+16.2 +9.6 65 +16 +17 тепло 1010.9 1000.8
В 3 30 км 6/5 540 м
[Cb calv Ac trans]
+15.4 +10.1 71 +15 +17 тепло 1010.4 1000.3
В 4 30 км 5/1 480 м
[Sc Ac trans Ci fib]
+15.8 +10.2 69 +15 +16 тепло 1010.5 1000.4 +17.4 0.0
В 2 30 км 6/1 480 м
[Sc Ac trans Ci sp]
+14.0 +9.2 73 +14 +14 тепло 1010.7 1000.5
ЮВ 1 30 км 8/8 480 м
[Sc]
+14.2 +9.7 74 +15 +15 тепло 1010.9 1000.7
Ю 1 30 км 8/8 480 м
[Cb calv]
+13.7 +10.5 81 +14 +14 тепло 1011.0 1000.8
ЮЗ 1 30 км 8/8 480 м
[Cb calv]
+13.7 +10.4 80 +14 +14 тепло 1011.1 1000.9
З 3 30 км 8/8 450 м
[Cu Sc]
+13.5 +12.1 91 +12 +12 тепло 1010.9 1000.7
СЗ 3 20 км слаб. ливневой дождь 8/8 450 м
[Cu Sc]
+13.2 +12.1 93 +12 +12 тепло 1010.8 1000.6 0.0
З 3 20 км в посл. час ливневой дождь 8/8 120 м
[Sc]
+13.0 +12.3 96 +12 +12 тепло 1010.7 1000.5
З 3 20 км 9/9 120 м
[Sc]
+12.7 +12.0 96 +11 +11 тепло 1010.6 1000.4
З 3 16 км {ливн. дождь} 9/9 150 м
[Sc]
+12.5 +11.8 95 +11 +11 тепло 1010.4 1000.2
СЗ 4 16 км 9/9 150 м
[Sc]
+12.2 +11.1 93 +10 +10 тепло 1010.3 1000.1
СЗ 4 16 км 9/9 120 м
[St]
+12.4 +11.2 92 +10 +10 тепло 1010.3 1000.1
СЗ 5 16 км {ливн. дождь} 9/9 180 м
[St]
+12.6 +11.2 91 +10 +10 тепло 1010.6 1000.4 +12.1 0.0
СЗ 5 16 км 9/9 180 м
[St]
+13.3 +11.2 87 +11 +11 тепло 1010.8 1000.6
СЗ 6 20 км 9/9 360 м
[St]
+13.7 +11.0 84 +12 +12 тепло 1010.9 1000.7
СЗ 6 20 км 9/9 360 м
[St]
+14.1 +10.6 79 +12 +13 тепло 1011.0 1000.8
СЗ 6 25 км 9/9 450 м
[Sc]
+14.5 +10.2 75 +13 +13 тепло 1011.1 1000.9
СЗ 7 25 км 9/9 500 м
[Sc]
+15.1 +10.4 73 +13 +14 тепло 1011.0 1000.9
СЗ 7 25 км 9/9 540 м
[Sc]
+14.9 +10.2 73 +13 +13 по сезону 1010.9 1000.8
СЗ 9 30 км 9/9 540 м
[Sc]
+16.3 +9.5 64 +15 +15 тепло 1010.5 1000.4
СЗ 8 30 км 9/9 540 м
[Sc]
+16.0 +9.8 67 +14 +15 тепло 1010.5 1000.4
СЗ 10 30 км 9/9 480 м
[Sc]
+15.5 +9.3 67 +13 +13 по сезону 1010.6 1000.5
СЗ 8 40 км 9/9 540 м
[Sc]
+15.2 +9.1 67 +13 +13 тепло 1010.5 1000.4
СЗ 8 40 км 9/9 540 м
[Cu Sc]
+15.2 +9.2 67 +13 +13 тепло 1010.6 1000.5
СЗ 9 40 км 9/9 540 м
[Cu Sc]
+14.3 +9.4 72 +12 +12 по сезону 1011.0 1000.8 +16.5
СЗ 10 30 км 9/9 540 м
[Sc]
+13.2 +9.1 76 +10 +10 по сезону 1011.5 1001.3
СЗ 9 30 км в посл. час ливневой дождь 9/9 500 м
[Sc]
+12.2 +8.8 80 +9 +9 по сезону 1012.3 1002.1
СЗ 9 30 км {ливн. дождь} 9/9 450 м
[Sc]
+11.8 +7.2 73 +8 +8 по сезону 1012.9 1002.6
СЗ 8 30 км 9/9 450 м
[Sc]
+11.3 +7.2 76 +8 +8 по сезону 1013.2 1002.9
СЗ 11 30 км 9/9 450 м
[Sc]
+10.9 +6.6 75 +7 +7 по сезону 1013.3 1003.0
СЗ 9 30 км {ливн. дождь} 9/9 450 м
[Sc]
+10.1 +6.6 79 +6 +6 по сезону 1013.5 1003.2 0.0
СЗ 11 30 км 9/9 450 м
[Sc]
+9.8 +5.7 76 +5 +5 по сезону 1013.7 1003.4
СЗ 10 30 км 9/9 450 м
[Sc]
+9.5 +4.8 72 +5 +5 тепло 1014.1 1003.7
СЗ 10 30 км 9/9 450 м
[Sc]
+9.4 +4.8 73 +5 +5 по сезону 1014.4 1004.0
СЗ 9 30 км 9/9 450 м
[Sc]
+9.2 +4.1 70 +5 +5 по сезону 1014.5 1004.1
СЗ 9 30 км 9/9 450 м
[Sc]
+9.4 +4.0 69 +5 +5 тепло 1014.8 1004.4
З 7 30 км 9/9 450 м
[Sc]
+9.2 +4.6 73 +5 +5 по сезону 1015.1 1004.7 +9.0 0.0
СЗ 11 30 км 9/9 450 м
[Sc]
+10.1 +4.4 68 +6 +6 по сезону 1015.2 1004.8
СЗ 8 30 км 9/6 480 м
[Sc Ac trans Ci fib]
+10.4 +4.0 65 +7 +7 тепло 1015.5 1005.2
СЗ 8 30 км слаб. дождь 9/9 480 м
[Sc]
+10.3 +4.1 65 +7 +7 прохладно 1016.1 1005.7
СЗ 8 30 км слаб. дождь 9/9 540 м
[Sc]
+10.7 +4.6 66 +7 +7 по сезону 1016.2 1005.9
СЗ 9 40 км в посл. час дождь 9/9 540 м
[Sc]
+11.5 +4.4 62 +8 +8 по сезону 1016.1 1005.8
СЗ 9 40 км {дождь} 9/9 540 м
[Cu Sc]
+12.7 +4.3 57 +10 +10 прохладно 1016.1 1005.8 0.0
СЗ 10 40 км 9/9 540 м
[Cu Sc]
+13.2 +4.7 56 +10 +10 по сезону 1016.2 1005.9
СЗ 9 40 км 9/9 540 м
[Cu Sc]
+13.0 +4.7 57 +10 +10 по сезону 1016.2 1005.9
СЗ 9 40 км 9/9 540 м
[Cu Sc]
+12.7 +4.7 58 +10 +10 по сезону 1016.1 1005.8
СЗ 8 40 км 9/9 540 м
[Cu Sc]
+12.5 +5.0 60 +10 +10 по сезону 1016.3 1006.0
СЗ 7 40 км 9/9 540 м
[Cu Sc]
+12.0 +4.7 61 +9 +9 по сезону 1016.5 1006.2
СЗ 6 30 км 9/9 720 м
[Sc]
+12.0 +4.7 61 +9 +10 прохладно 1016.7 1006.4 +13.9 0.0
СЗ 7 30 км 9/9 720 м
[Sc]
+11.5 +4.6 63 +9 +9 по сезону 1016.8 1006.5
СЗ 7 30 км 9/9 540 м
[Sc]
+10.9 +4.4 64 +8 +8 по сезону 1017.0 1006.7
СЗ 7 30 км 9/9 540 м
[Sc]
+10.3 +4.7 68 +7 +7 прохладно 1017.3 1006.9
СЗ 6 30 км 9/9 540 м
[Sc]
+10.2 +4.6 68 +7 +7 по сезону 1017.4 1007.0
З 6 30 км 9/9 540 м
[Sc]
+9.9 +4.6 70 +7 +7 по сезону 1017.2 1006.8
З 6 30 км 9/9 540 м
[Sc]
+10.0 +4.7 70 +7 +7 по сезону 1016.9 1006.5
З 6 30 км 9/9 540 м
[Sc]
+9.8 +5.5 75 +6 +6 по сезону 1016.9 1006.5
З 6 30 км слаб. дождь 9/9 540 м
[Sc]
+9.6 +5.5 76 +6 +6 тепло 1016.7 1006.3
З 5 30 км в посл. час дождь 9/9 540 м
[Sc]
+9.4 +5.7 78 +6 +6 по сезону 1016.7 1006.3
З 6 20 км в посл. час морось 9/9 500 м
[St]
+9.1 +6.2 82 +5 +5 по сезону 1016.6 1006.2
З 5 20 км слаб. морось 9/9 270 м
[St]
+9.0 +6.4 84 +6 +6 тепло 1016.6 1006.2
З 5 16 км слаб. морось {дождь} 9/9 240 м
[St]
+8.5 +7.1 91 +5 +5 по сезону 1016.7 1006.3 +8.4 0.0
З 5 9000 м слаб. дождь {морось} 9/9 240 м
[Sc]
+8.8 +7.7 93 +5 +5 по сезону 1016.9 1006.5
З 5 9000 м слаб. дождь 10/10 180 м
[St]
+9.1 +8.1 93 +6 +6 тепло 1017.2 1006.8
З 4 9000 м слаб. дождь {морось} 10/10 180 м
[St]
+9.4 +8.3 93 +6 +6 прохладно 1017.5 1007.1
З 6 6000 м дождь {морось} 10/10 180 м
[St]
+9.8 +9.1 95 +6 +6 по сезону 1017.6 1007.2
З 5 5000 м дождь {морось} 10/10 150 м
[St]
+10.1 +9.4 95 +7 +7 по сезону 1017.7 1007.3
З 5 6000 м дождь {морось} 10/10 150 м
[St]
+10.8 +9.6 92 +8 +8 прохладно 1017.8 1007.4 2
З 6 7000 м дождь {морось} 10/10 180 м
[St]
+11.7 +9.7 88 +9 +9 по сезону 1017.8 1007.5
З 5 15 км в посл. час дождь {морось} 10/10 240 м
[St]
+11.9 +10.4 91 +9 +9 по сезону 1017.9 1007.6
З 5 20 км в посл. час дождь {морось} 10/10 240 м
[Sc]
+12.5 +9.2 80 +10 +10 по сезону 1017.9 1007.6
З 3 20 км слаб. морось 10/10 240 м
[Sc]
+11.9 +9.1 83 +10 +10 по сезону 1017.9 1007.6
З 3 20 км в посл. час морось 10/10 360 м
[Sc]
+12.2 +8.6 79 +11 +11 по сезону 1017.8 1007.5
З 3 20 км {дождь, морось} 10/10 360 м
[Sc]
+12.0 +8.7 80 +10 +10 по сезону 1018.0 1007.7 +12.8 2
штиль 0 30 км 9/9 360 м
[Sc]
+12.2 +8.1 76 +12 +12 по сезону 1018.0 1007.7
Ю 3 30 км 10/10 360 м
[Sc]
+11.8 +9.6 86 +10 +10 по сезону 1017.9 1007.6
ЮВ 2 30 км 10/10 480 м
[Sc]
+11.6 +9.6 88 +10 +10 по сезону 1018.1 1007.8
Ю 2 30 км 10/10 480 м
[Sc]
+11.4 +9.4 88 +10 +10 по сезону 1018.2 1007.9
Ю 2 30 км 9/9 540 м
[Sc]
+11.0 +9.1 88 +10 +10 тепло 1017.9 1007.6
В 2 30 км 9/9 540 м
[Sc]
+11.3 +9.6 89 +10 +10 по сезону 1017.7 1007.4
ЮВ 2 30 км 9/9 540 м
[Sc]
+10.6 +9.3 92 +9 +9 тепло 1017.4 1007.0
ЮВ 2 30 км 9/9 540 м
[Sc]
+11.0 +8.4 84 +10 +10 тепло 1017.1 1006.8
ЮВ 4 30 км 9/9 540 м
[Sc]
+10.9 +6.8 76 +9 +9 по сезону 1016.7 1006.4
ЮВ 5 40 км 9/9 540 м
[Sc]
+10.5 +6.2 75 +8 +8 тепло 1016.6 1006.2
Ю 4 40 км 8/8 540 м
[Sc]
+10.6 +6.6 76 +8 +8 тепло 1016.5 1006.2
Ю 5 40 км 3/1 540 м
[Sc Ac trans]
+11.5 +7.0 74 +9 +9 по сезону 1016.6 1006.3 +10.3
Ю 6 40 км 8/8 540 м
[Sc]
+12.1 +7.4 73 +9 +10 тепло 1016.5 1006.2
ЮВ 5 40 км 6/6 500 м
[Sc]
+12.5 +7.6 72 +10 +12 тепло 1016.4 1006.1
ЮВ 7 40 км 8/8 540 м
[Cu Sc]
+13.0 +7.1 67 +10 +11 по сезону 1016.2 1005.9
ЮВ 7 40 км 8/4 540 м
[Cu Sc Ci sp]
+13.7 +7.2 65 +11 +13 тепло 1015.9 1005.7
ЮВ 6 40 км 8/4 540 м
[Cu Sc Ci sp]
+14.1 +7.0 62 +12 +15 тепло 1015.7 1005.5
ЮВ 7 40 км 8/4 540 м
[Cu Sc Ci sp]
+14.0 +6.7 61 +12 +14 по сезону 1015.0 1004.8
ЮВ 6 40 км 8/4 540 м
[Cu Sc Ci sp]
+14.0 +8.2 68 +12 +15 по сезону 1014.5 1004.3
ЮВ 7 40 км 8/4 540 м
[Cu Sc Ci sp]
+14.9 +8.1 64 +13 +15 тепло 1014.2 1004.0
ЮВ 7 40 км 8/4 540 м
[Cu Sc Ci sp]
+14.2 +7.1 62 +12 +14 по сезону 1013.8 1003.6
ЮВ 5 40 км 8/4 540 м
[Cu Sc Ci sp]
+14.5 +6.7 59 +13 +15 по сезону 1013.1 1002.9
ЮВ 6 40 км 8/4 540 м
[Cu Sc Ci sp]
+14.7 +5.5 54 +13 +14 тепло 1012.6 1002.4
ЮВ 4 40 км 8/4 540 м
[Cu Sc Ci sp]
+13.2 +7.9 70 +12 +13 по сезону 1012.4 1002.2 +15.5
ЮВ 4 40 км 9/9 540 м
[Cu Sc]
+12.7 +7.8 72 +11 +11 по сезону 1012.1 1001.9
ЮВ 6 40 км 9/9 450 м
[Sc]
+12.2 +7.1 71 +10 +10 по сезону 1011.9 1001.7
ЮВ 3 30 км в посл. час дождь 9/9 450 м
[Sc]
+11.9 +7.3 73 +10 +10 по сезону 1011.8 1001.5
ЮВ 5 25 км слаб. дождь 9/9 300 м
[Sc]
+10.9 +8.7 86 +8 +8 по сезону 1011.6 1001.3
ЮВ 4 20 км слаб. дождь 9/9 240 м
[Sc]
+10.9 +9.3 90 +8 +8 по сезону 1011.0 1000.7
ЮВ 4 20 км слаб. дождь 9/9 270 м
[Sc]
+10.7 +9.4 92 +8 +8 по сезону 1010.5 1000.2 2
ЮВ 4 20 км слаб. дождь 9/9 240 м
[St]
+10.7 +9.2 90 +8 +8 тепло 1010.1 999.8
ЮВ 4 20 км слаб. дождь 9/9 240 м
[Sc]
+10.4 +8.7 89 +8 +8 тепло 1009.5 999.2
ЮВ 4 20 км слаб. дождь 9/9 240 м
[Sc]
+10.5 +9.3 92 +8 +8 по сезону 1009.0 998.7
ЮВ 4 15 км слаб. дождь 9/9 180 м
[St]
+10.5 +9.6 94 +8 +8 тепло 1008.6 998.3
ЮВ 3 20 км в посл. час дождь 9/9 240 м
[St]
+10.4 +9.3 93 +8 +8 тепло 1008.5 998.2
В 3 20 км в посл. час дождь 9/9 240 м
[St]
+10.7 +9.8 94 +9 +9 по сезону 1008.2 997.9 +10.2 3
В 4 20 км слаб. дождь 9/9 240 м
[St]
+10.9 +9.7 92 +8 +9 тепло 1008.1 997.8
В 4 7000 м в посл. час дождь {морось} 10/10 150 м
[St]
+11.4 +10.0 91 +9 +9 тепло 1008.1 997.9
ЮВ 3 7000 м в посл. час морось {дождь} 10/10 120 м
[St]
+11.3 +10.4 94 +9 +9 по сезону 1008.1 997.9
В 4 6000 м слаб. морось 10/10 90 м
[St]
+11.2 +10.4 95 +9 +9 по сезону 1008.1 997.9
В 2 4000 м дождь {морось} 10/10 90 м
[St]
+11.9 +11.2 95 +11 +11 тепло 1008.0 997.8
В 2 5000 м дождь {морось} 10/10 90 м
[St]
+12.4 +11.6 95 +11 +11 по сезону 1007.9 997.7 2
СВ 2 25 км в посл. час ливневой дождь 9/9 180 м
[Cu Sc]
+13.9 +11.5 85 +13 +15 тепло 1007.4 997.3
В 2 15 км осадки на расстоянии 9/9 300 м
[Cb calv]
+15.1 +11.1 77 +15 +16 тепло 1007.4 997.3
Ю 3 6000 м гроза, ливневой дождь 10/10 270 м
[Cb calv]
+11.2 +10.0 92 +9 +9 по сезону 1008.1 997.9
З 3 25 км в посл. час дождь 9/8 180 м
[Cb calv Ci sp]
+13.1 +11.6 91 +12 +13 тепло 1008.1 997.9
ЮЗ 3 18 км слаб. ливневой дождь 9/9 210 м
[Cb calv]
+12.8 +10.3 85 +11 +12 тепло 1007.9 997.7
ЮЗ 3 4500 м ливневой дождь {гроза} 10/10 210 м
[Cb calv]
+11.8 +10.8 94 +10 +10 по сезону 1008.2 998.0 +15.4 5
ЮЗ 3 18 км слаб. дождь {ливн. дождь} 9/9 300 м
[Cb calv]
+11.1 +9.9 92 +9 +9 по сезону 1008.2 998.0
ЮЗ 3 18 км слаб. дождь 9/9 180 м
[Cu Sc]
+11.1 +10.1 94 +9 +9 по сезону 1008.4 998.2
З 3 20 км в посл. час дождь 9/9 180 м
[Sc]
+11.0 +9.6 91 +9 +9 по сезону 1009.0 998.7
З 4 20 км 9/9 180 м
[St]
+10.7 +9.6 93 +8 +8 по сезону 1009.4 999.1
ЮЗ 4 20 км 9/9 240 м
[St]
+10.6 +9.1 90 +8 +8 тепло 1009.6 999.3
З 4 20 км {ливн. дождь, дождь} 9/9 240 м
[Sc]
+10.1 +8.8 92 +7 +7 по сезону 1009.8 999.5 3
З 4 25 км 9/9 240 м
[St]
+9.8 +8.5 92 +7 +7 тепло 1009.8 999.5
З 5 25 км 8/8 210 м
[St]
+9.7 +8.2 90 +6 +6 тепло 1010.0 999.7
З 6 25 км 8/8 210 м
[St]
+9.5 +8.1 91 +6 +6 по сезону 1010.3 1000.0
З 3 30 км 9/9 210 м
[St]
+8.7 +7.5 92 +6 +6 тепло 1010.5 1000.1
З 4 30 км 8/5 180 м
[Sc Ac trans]
+8.7 +7.4 92 +5 +6 тепло 1010.8 1000.4
З 4 30 км 8/4 210 м
[Sc Ac trans]
+9.3 +7.6 89 +6 +7 по сезону 1011.2 1000.9 +8.6 3
ЮЗ 4 35 км 5/4 240 м
[Sc Ac trans]
+9.5 +7.4 87 +7 +8 тепло 1011.4 1001.1
ЮЗ 4 40 км 8/8 300 м
[Cu med, cong]
+10.4 +7.6 83 +8 +9 тепло 1011.7 1001.4
ЮЗ 4 40 км 8/8 300 м
[Cu med, cong]
+11.7 +7.7 76 +10 +11 тепло 1011.6 1001.3
ЮЗ 4 45 км 8/8 480 м
[Cu Sc]
+13.6 +8.4 71 +12 +14 тепло 1011.3 1001.1
ЮЗ 4 40 км в посл. час ливневой дождь 9/9 540 м
[Cb calv]
+13.3 +6.7 64 +12 +13 тепло 1011.5 1001.3
Местоположение метеостанции Дублин (Ирландия): широта 53.43 долгота -6.24 высота над уровнем моря 71 м.
В архиве по умолчанию представлена погода в Дублине за последнюю неделю. Архивные данные за месяц целиком и за предыдущие месяцы, начиная с января 2011 года, Вы можете получить, выбрав интересующий диапазон дат из раскрывающегося списка и нажав кнопку "Найти!".
*Определитесь, кто Вы:
Внимание! Время в таблицах - всемирное. Для получения местного времени необходимо прибавить поправку, которая равна 0 ч.
Некоторые строки с данными для отдельных станций могут быть выделены курсивом. Это означает, что фактические данные отсутствуют по различным причинам, а приведенные значения являются расчетными модельными данными для данного пункта наблюдений.
Смотрите также архив погоды в соседних городах и на ближайших метеорологических станциях:
Партнеры нашего сайта:      
Пояснения к столбцам:
  • Ветер - указаны скорость ветра в м/с - средняя за 10 мин, порывы в срок и между сроками (в фигурных скобках) и направление, откуда дует ветер: С - северный,
  • СВ - северо-восточный, В - восточный, ЮВ - юго-восточный, Ю - южный, ЮЗ - юго-западный, З - западный, СЗ - северо-западный.
  • Видимость - горизонтальная дальность видимости в метрах или километрах. При видимости от 1 до 10 км при отсутствии осадков обычно наблюдается дымка, при ухудшении видимости до 1 км и менее - туман. В сухую погоду видимость может ухудшаться дымом, пылью или мглою.
  • Явления - указаны атмосферные явления, наблюдавшиеся в срок или в последний час перед сроком; фигурными скобками обозначены явления, наблюдавшиеся между сроками (за 1-3 часа до срока); квадратными скобками обозначены град или гололедные отложения с указанием их диаметра в мм.
  • Облачность - указаны через наклонную черту общая и нижняя облачность в баллах и высота нижней границы облаков в метрах; квадратными скобками обозначены формы облаков: Ci - перистые, Cs - перисто-слоистые, Cc - перисто-кучевые, Ac - высококучевые, As - высокослоистые, Sc - слоисто-кучевые, Ns - слоисто-дождевые, Cu - кучевые, Cb - кучево-дождевые. Подробнее классификацию облаков см. в Атласе облаков (PDF).
  • T - Температура воздуха - температура, измеренная на высоте 2 м над землей.
  • Td - Температура точки росы - температура, при понижении до которой содержащийся в воздухе водяной пар достигнет насыщения.
  • f - Относительная влажность воздуха - влажноcть воздуха, измеренная на высоте 2 м над землей.
  • Te - Эффективная температура - температура, которую ощущает одетый по сезону человек в тени. Характеристика душности погоды. При расчете учитывается влияние влажности воздуха и скорости ветра на теплоощущения человека.
  • Tes - Эффективная температура на солнце - температура, которую ощущает человек, с поправкой на солнечный нагрев. Характеристика знойности погоды. Зависит от высоты солнца над горизонтом, облачности и скорости ветра. Ночью, в пасмурную погоду, а также при ветре 12 м/с и более поправка равна нулю.
  • P - Атмосферное давление - приведенное к уровню моря атмосферное давление.
  • Po - Атмосферное давление - измеренное на уровне метеостанции атмосферное давление.
  • Tmin - Минимальная температура - минимум температуры воздуха на высоте 2 м над землей.
  • Tmax - Максимальная температура - максимум температуры воздуха на высоте 2 м над землей.
  • R - Количество осадков - Количество выпавших осадков за период времени, мм. При наведении курсора мыши на число - период времени, за который выпало указанное количество осадков.
  • R24 - Количество осадков - Количество выпавших осадков за 24 часа, мм.
  • S - Снежный покров - Высота снежного покрова, см. При наведении курсора мыши на число - состояние снежного покрова и степень покрытия местности в баллах.